Location: Eurasberg
(48.3353°N, 11.0839°E)
Time: 20:06:24
(UTC+00:00)

Cosmos 2366 rocket - Pass Details

Date: 18 January 2026
Orbit: 955 x 995 km, 82.9° (Epoch: 13 February)

Event Time Altitude Azimuth Distance (km) Brightness Sun altitude
Rises 05:52:44 0° 191° (S) 3,638 7.1 -10.9°
Reaches altitude 10° 05:55:12 10° 192° (SSW) 2,701 6.4 -10.5°
Maximum altitude 06:01:24 80° 279° (W) 996 4.0 -9.6°
Drops below altitude 10° 06:07:43 10° 7° (N) 2,748 6.2 -8.6°
Sets 06:10:16 0° 9° (N) 3,706 6.9 -8.2°
